TIANZHI 1

导读 | 星芒AI

TIANZHI 1 是中国自主研发的一颗遥感卫星,主要用于地球观测和环境监测。该卫星具备高分辨率成像能力,能够提供清晰的地表图像,支持资源调查、灾害预警、城市规划等多个领域。其发射提升了中国在遥感技术方面的自主能力,增强了对地观测数据的获取效率和精度。TIANZHI 1 的成功运行标志着中国在民用遥感卫星应用方面迈出了重要一步。

基本信息
目录编号:
43710
目录名称:
TIANZHI 1
国际标识:
2018-094A
轨道中心:
EARTH
卫星名称:
TIANZHI 1
卫星全名:
--
卫星状态:
已陨落 最后检测时间 2025-10-05
发射日期:
2018-11-19 UTC
国别 :
中国 (CN)
星等 :
--
轨道信息
数据来源 国际轨道数据
星历时间: 2025-10-05T12:00:17+0800
轨道信息已过期24天
半长轴: 6523.081km
偏心率: 0.0011303
轨道倾角: 97.307°
近地点辐角 257.630°
升交点赤经 321.156°
平近点角 102.374°
近地点: 137.572km
远地点: 152.32km
周期: 87.385分钟
每日圈数: 16.478725
详细信息
使用方式:
暂无